KD4TJG Weather Reports


time (UTC)temp
C
wind
direction
speed
KPH
gust
KPH
rain 1hr
cm
rain 24hr
cm
rain mn
cm
humidity
%
barometer
mb
20260503033034 5 0 0.0 1.6 0.00 0.00 0.00 86 1015.2
20260503032522 5 0 0.0 3.2 0.00 0.00 0.00 86 1015.1
20260503032023 5 0 0.0 3.2 0.00 0.00 0.00 86 1015.0
20260503031541 5 282 0.0 0.0 0.00 0.00 0.00 85 1014.9
20260503031022 5 0 0.0 0.0 0.00 0.00 0.00 85 1014.8
20260503030522 5 0 0.0 0.0 0.00 0.00 0.00 85 1014.7
20260503030455 6 0 0.0 0.0 0.00 0.00 0.00 85 1016.7
20260503030041 5 0 0.0 0.0 0.00 0.00 0.00 85 1014.7
20260503025522 5 0 0.0 0.0 0.00 0.00 0.00 85 1014.7
20260503025513 6 0 0.0 0.0 0.00 0.00 0.00 85 1016.7
20260503025018 6 0 0.0 0.0 0.00 0.00 0.00 84 1014.7
20260503024541 6 0 0.0 0.0 0.00 0.00 0.00 84 1014.7
20260503024510 6 0 0.0 0.0 0.00 0.00 0.00 84 1016.8
20260503024022 6 0 0.0 0.0 0.00 0.00 0.00 84 1014.7
20260503023524 6 0 0.0 0.0 0.00 0.00 0.00 83 1014.8
20260503023046 6 0 0.0 0.0 0.00 0.00 0.00 83 1014.7
20260503022522 6 0 0.0 0.0 0.00 0.00 0.00 82 1014.7
20260503022336 7 0 0.0 0.0 0.00 0.00 0.00 82 1016.6
20260503022023 6 0 0.0 0.0 0.00 0.00 0.00 82 1014.5
20260503021535 7 0 0.0 0.0 0.00 0.00 0.00 82 1014.5
20260503021346 7 0 0.0 0.0 0.00 0.00 0.00 82 1016.7
20260503021019 7 0 0.0 0.0 0.00 0.00 0.00 82 1014.6
20260503020522 7 0 0.0 0.0 0.00 0.00 0.00 81 1014.6
20260503020408 7 0 0.0 0.0 0.00 0.00 0.00 81 1016.6
20260503020034 7 0 0.0 0.0 0.00 0.00 0.00 81 1014.6
20260503015522 7 0 0.0 0.0 0.00 0.00 0.00 80 1014.5
20260503015409 8 0 0.0 0.0 0.00 0.00 0.00 80 1016.5
20260503015021 8 0 0.0 1.6 0.00 0.00 0.00 80 1014.4
20260503014549 8 0 0.0 3.2 0.00 0.00 0.00 79 1014.3
20260503014336 8 0 0.0 0.0 0.00 0.00 0.00 79 1016.2
20260503014022 8 0 0.0 4.8 0.00 0.00 0.00 79 1014.3
20260503013522 8 273 0.0 4.8 0.00 0.00 0.00 78 1014.1
20260503013335 8 273 0.0 1.6 0.00 0.00 0.00 78 1016.2
20260503013045 8 0 0.0 1.6 0.00 0.00 0.00 77 1014.1
20260503012521 8 0 0.0 1.6 0.00 0.00 0.00 77 1014.0
20260503012335 9 281 0.0 0.0 0.00 0.00 0.00 76 1015.9
20260503012022 9 0 0.0 1.6 0.00 0.00 0.00 75 1013.8
20260503011542 9 0 0.0 3.2 0.00 0.00 0.00 74 1013.7
20260503011310 10 281 0.0 1.6 0.00 0.00 0.00 74 1015.7
20260503011021 10 281 0.0 3.2 0.00 0.00 0.00 73 1013.6
20260503010525 10 0 0.0 3.2 0.00 0.00 0.00 74 1013.5
20260503010324 10 258 0.0 1.6 0.00 0.00 0.00 73 1015.5
20260503010046 10 258 1.6 3.2 0.00 0.00 0.00 73 1013.5
20260503005522 10 0 0.0 3.2 0.00 0.00 0.00 73 1013.4
20260503005337 11 274 0.0 1.6 0.00 0.00 0.00 72 1015.4
20260503005024 11 0 0.0 1.6 0.00 0.00 0.00 69 1013.3
20260503004600 11 0 0.0 1.6 0.00 0.00 0.00 69 1013.1
20260503004338 11 274 0.0 0.0 0.00 0.00 0.00 70 1015.2
20260503004023 11 274 0.0 3.2 0.00 0.00 0.00 70 1013.2
20260503003522 11 0 0.0 3.2 0.00 0.00 0.00 71 1013.1
20260503003044 11 0 0.0 3.2 0.00 0.00 0.00 66 1013.0
20260503002522 12 339 0.0 3.2 0.00 0.00 0.00 69 1013.0
20260503002220 12 273 0.0 0.0 0.00 0.00 0.00 69 1014.8
20260503002022 12 273 0.0 1.6 0.00 0.00 0.00 69 1012.9
20260503001546 12 0 0.0 1.6 0.00 0.00 0.00 69 1012.9
20260503001150 12 273 0.0 0.0 0.00 0.00 0.00 68 1014.8
20260503001022 12 273 0.0 1.6 0.00 0.00 0.00 68 1012.8
20260503000523 12 0 0.0 0.0 0.00 0.00 0.00 68 1012.8
20260503000204 12 273 0.0 0.0 0.00 0.00 0.00 68 1014.7
20260503000044 12 0 0.0 1.6 0.00 0.00 0.00 69 1012.8
20260502235523 12 0 0.0 3.2 0.00 0.00 0.00 68 1012.7
20260502235209 12 273 0.0 0.0 0.00 0.00 0.00 68 1014.6
20260502235021 12 273 0.0 3.2 0.00 0.00 0.00 68 1012.6
20260502234550 12 273 0.0 4.8 0.00 0.00 0.00 68 1012.5
20260502234226 13 305 0.0 0.0 0.00 0.00 0.00 67 1014.5
20260502234021 12 0 0.0 4.8 0.00 0.00 0.00 67 1012.4
20260502233521 12 219 1.6 4.8 0.00 0.00 0.00 67 1012.3
20260502233224 13 243 0.0 1.6 0.00 0.00 0.00 66 1014.3
20260502233042 13 0 0.0 3.2 0.00 0.00 0.00 66 1012.2
20260502232524 13 75 0.0 1.6 0.00 0.00 0.00 63 1012.1
20260502232222 13 52 0.0 0.0 0.00 0.00 0.00 63 1014.2
20260502232021 13 0 0.0 1.6 0.00 0.00 0.00 64 1012.0
20260502231539 13 0 0.0 1.6 0.00 0.00 0.00 63 1012.0
20260502231227 13 49 0.0 0.0 0.00 0.00 0.00 62 1014.0
20260502231022 13 0 0.0 1.6 0.00 0.00 0.00 60 1011.9
20260502230522 13 0 0.0 1.6 0.00 0.00 0.00 57 1011.8
20260502230244 14 49 0.0 0.0 0.00 0.00 0.00 58 1013.8
20260502230046 13 0 0.0 1.6 0.00 0.00 0.00 58 1011.8
20260502225521 14 0 0.0 1.6 0.00 0.00 0.00 57 1011.8
20260502225214 14 49 0.0 0.0 0.00 0.00 0.00 56 1013.8
20260502225021 14 0 0.0 3.2 0.00 0.00 0.00 58 1011.8
20260502224545 14 0 0.0 3.2 0.00 0.00 0.00 54 1011.7
20260502224143 15 49 0.0 1.6 0.00 0.00 0.00 51 1013.7
20260502224022 15 41 0.0 3.2 0.00 0.00 0.00 51 1011.7
20260502223522 15 0 0.0 3.2 0.00 0.00 0.00 49 1011.7
20260502223122 15 149 0.0 4.8 0.00 0.00 0.00 48 1013.6
20260502223045 15 149 0.0 3.2 0.00 0.00 0.00 47 1011.6
20260502222523 15 149 0.0 8.0 0.00 0.00 0.00 44 1011.4
20260502222145 15 135 1.6 4.8 0.00 0.00 0.00 45 1013.4
20260502222021 15 162 1.6 8.0 0.00 0.00 0.00 45 1011.4
20260502221540 15 147 1.6 8.0 0.00 0.00 0.00 46 1011.2
20260502221155 16 131 1.6 6.4 0.00 0.00 0.00 44 1013.3
20260502221021 16 220 1.6 8.0 0.00 0.00 0.00 43 1011.2
20260502220522 16 151 4.8 8.0 0.00 0.00 0.00 44 1011.2
20260502220206 16 189 1.6 8.0 0.00 0.00 0.00 44 1013.2
20260502220042 16 0 0.0 9.7 0.00 0.00 0.00 45 1011.1
20260502215523 16 51 1.6 11.3 0.00 0.00 0.00 43 1011.1
20260502215204 16 154 3.2 8.0 0.00 0.00 0.00 44 1013.1
20260502215022 16 110 4.8 11.3 0.00 0.00 0.00 44 1010.9
20260502214544 16 357 3.2 6.4 0.00 0.00 0.00 44 1010.9
20260502214201 16 75 1.6 6.4 0.00 0.00 0.00 44 1013.0
20260502214022 16 18 1.6 6.4 0.00 0.00 0.00 47 1011.0
20260502213522 16 120 1.6 8.0 0.00 0.00 0.00 44 1011.0
20260502213146 16 143 1.6 12.9 0.00 0.00 0.00 45 1012.9
20260502213043 15 127 3.2 8.0 0.00 0.00 0.00 44 1010.9
20260502212522 15 121 3.2 14.5 0.00 0.00 0.00 46 1010.9
20260502212124 15 120 4.8 12.9 0.00 0.00 0.00 44 1012.8
20260502212021 15 0 1.6 14.5 0.00 0.00 0.00 44 1010.8
20260502211541 16 142 6.4 16.1 0.00 0.00 0.00 44 1010.7
20260502211128 16 109 4.8 11.3 0.00 0.00 0.00 46 1012.7
20260502211021 15 129 6.4 16.1 0.00 0.00 0.00 45 1010.9
20260502210521 16 326 3.2 14.5 0.00 0.00 0.00 45 1010.8
20260502210144 16 91 4.8 11.3 0.00 0.00 0.00 44 1012.8
20260502210048 16 150 6.4 14.5 0.00 0.00 0.00 44 1010.8
20260502205521 16 58 1.6 6.4 0.00 0.00 0.00 47 1010.9
20260502205205 16 159 1.6 6.4 0.00 0.00 0.00 47 1012.9
20260502205023 15 50 1.6 8.0 0.00 0.00 0.00 46 1010.9
20260502204548 16 345 3.2 8.0 0.00 0.00 0.00 45 1010.9
20260502204212 16 7 1.6 6.4 0.00 0.00 0.00 45 1013.0
20260502204022 15 50 3.2 8.0 0.00 0.00 0.00 45 1010.9
20260502203526 16 357 3.2 8.0 0.00 0.00 0.00 44 1011.1
20260502203237 16 312 1.6 11.3 0.00 0.00 0.00 47 1013.1
20260502203046 15 94 3.2 11.3 0.00 0.00 0.00 45 1011.1
20260502202522 15 207 1.6 12.9 0.00 0.00 0.00 46 1011.3
20260502202022 15 51 1.6 12.9 0.00 0.00 0.00 46 1011.3
20260502201546 15 45 4.8 16.1 0.00 0.00 0.00 47 1011.3
20260502201023 15 55 6.4 16.1 0.00 0.00 0.00 46 1011.4
20260502200526 15 99 4.8 14.5 0.00 0.00 0.00 47 1011.4
20260502200049 15 106 6.4 14.5 0.00 0.00 0.00 50 1011.5
20260502200036 15 122 4.8 12.9 0.00 0.00 0.00 50 1013.6
20260502195521 14 98 6.4 14.5 0.00 0.00 0.00 47 1011.6
20260502195038 15 112 4.8 8.0 0.00 0.00 0.00 46 1013.9
20260502195021 14 120 4.8 9.7 0.00 0.00 0.00 46 1011.9
20260502194540 14 85 3.2 9.7 0.00 0.00 0.00 48 1012.0
20260502194034 13 14 1.6 11.3 0.00 0.00 0.00 48 1014.1
20260502194022 13 63 3.2 9.7 0.00 0.00 0.00 48 1012.1
20260502193522 13 261 1.6 8.0 0.00 0.00 0.00 49 1012.2
20260502193047 14 115 1.6 11.3 0.00 0.00 0.00 52 1014.2
20260502193042 13 85 1.6 12.9 0.00 0.00 0.00 49 1012.2
20260502192522 13 104 4.8 12.9 0.00 0.00 0.00 49 1012.2
20260502192021 13 338 1.6 9.7 0.00 0.00 0.00 51 1012.2
20260502191543 13 304 1.6 11.3 0.00 0.00 0.00 51 1012.3
20260502191028 13 114 4.8 12.9 0.00 0.00 0.00 49 1012.2
20260502190852 13 130 4.8 9.7 0.00 0.00 0.00 49 1014.3
20260502190521 13 110 6.4 12.9 0.00 0.00 0.00 50 1012.3
20260502190045 13 80 3.2 8.0 0.00 0.00 0.00 49 1012.4
20260502185838 13 118 1.6 6.4 0.00 0.00 0.00 50 1014.4
20260502185521 13 348 1.6 11.3 0.00 0.00 0.00 50 1012.5
20260502185022 13 30 4.8 11.3 0.00 0.00 0.00 49 1012.6
20260502184850 13 75 1.6 9.7 0.00 0.00 0.00 48 1014.6
20260502184540 13 129 1.6 12.9 0.00 0.00 0.00 51 1012.6
20260502184022 13 347 3.2 12.9 0.00 0.00 0.00 53 1012.7
20260502183847 13 0 1.6 9.7 0.00 0.00 0.00 52 1014.7
20260502183521 12 39 4.8 12.9 0.00 0.00 0.00 51 1012.7
20260502183043 12 0 1.6 11.3 0.00 0.00 0.00 52 1012.7
20260502182845 12 354 1.6 6.4 0.00 0.00 0.00 51 1014.7
20260502182522 12 80 3.2 11.3 0.00 0.00 0.00 53 1012.9
20260502182022 12 80 1.6 6.4 0.00 0.00 0.00 52 1012.8
20260502181843 12 16 0.0 3.2 0.00 0.00 0.00 51 1014.9
20260502181545 12 8 1.6 6.4 0.00 0.00 0.00 53 1012.8
20260502181021 12 95 1.6 6.4 0.00 0.00 0.00 52 1012.8
20260502180847 12 286 0.0 6.4 0.00 0.00 0.00 52 1014.8
20260502180524 12 328 0.0 6.4 0.00 0.00 0.00 53 1012.9
20260502164021 12 310 3.2 8.0 0.00 0.00 0.00 53 1013.8
20260502163522 12 0 0.0 4.8 0.00 0.00 0.00 54 1014.0
20260502163512 12 226 0.0 3.2 0.00 0.00 0.00 54 1016.1
20260502163050 11 192 0.0 4.8 0.00 0.00 0.00 53 1014.1
20260502162522 11 12 0.0 4.8 0.00 0.00 0.00 54 1014.0
20260502162512 12 16 0.0 1.6 0.00 0.00 0.00 54 1016.1
20260502162023 11 246 1.6 6.4 0.00 0.00 0.00 52 1014.3
20260502161539 11 29 1.6 6.4 0.00 0.00 0.00 52 1014.2
20260502161502 11 44 1.6 6.4 0.00 0.00 0.00 52 1016.2
20260502161021 11 353 1.6 8.0 0.00 0.00 0.00 52 1014.3
20260502160525 11 0 1.6 8.0 0.00 0.00 0.00 54 1014.4
20260502160522 11 90 1.6 6.4 0.00 0.00 0.00 54 1016.4
20260502152325 11 329 1.6 9.7 0.00 0.00 0.00 53 1016.5
20260502152020 11 0 1.6 11.3 0.00 0.00 0.00 55 1014.4
20260502151553 11 14 1.6 11.3 0.00 0.00 0.00 54 1014.3
20260502151340 11 357 1.6 9.7 0.00 0.00 0.00 56 1016.3
20260502151021 11 306 1.6 8.0 0.00 0.00 0.00 56 1014.4
20260502150520 11 326 1.6 6.4 0.00 0.00 0.00 55 1014.4
20260502150340 11 318 1.6 11.3 0.00 0.00 0.00 54 1016.3
20260502140130 11 68 1.6 8.0 0.00 0.00 0.00 59 1016.2
20260502130521 11 3 1.6 4.8 0.00 0.00 0.00 67 1014.0
20260502123522 11 0 1.6 4.8 0.00 0.00 0.00 70 1013.1
20260502123049 11 0 1.6 4.8 0.00 0.00 0.00 73 1013.0
20260502122825 11 6 0.0 1.6 0.00 0.00 0.00 75 1015.2
20260502122525 11 0 0.0 1.6 0.00 0.00 0.00 75 1013.2
20260502122023 10 0 0.0 1.6 0.00 0.00 0.00 76 1013.1
20260502121833 11 105 0.0 0.0 0.00 0.00 0.00 76 1015.3
20260502121540 10 0 0.0 3.2 0.00 0.00 0.00 76 1013.3
20260502121020 10 0 0.0 3.2 0.00 0.00 0.00 76 1013.4
20260502120849 11 105 0.0 1.6 0.00 0.00 0.00 76 1015.4
20260502120521 10 105 0.0 3.2 0.00 0.00 0.00 77 1013.2
20260502115821 11 295 0.0 0.0 0.00 0.00 0.00 78 1015.2
20260502115520 10 0 0.0 1.6 0.00 0.00 0.00 78 1013.3
20260502115020 10 0 0.0 3.2 0.00 0.00 0.00 78 1013.4
20260502114828 11 273 0.0 0.0 0.00 0.00 0.00 79 1015.4
20260502114541 10 273 0.0 3.2 0.00 0.00 0.00 79 1013.3
20260502114019 10 222 0.0 3.2 0.00 0.00 0.00 79 1013.1
20260502113842 10 279 0.0 0.0 0.00 0.00 0.00 80 1015.0
20260502113521 10 0 0.0 1.6 0.00 0.00 0.00 81 1013.0
20260502113036 10 0 0.0 3.2 0.00 0.00 0.00 83 1013.1
20260502112826 10 219 0.0 0.0 0.00 0.00 0.00 83 1015.3
20260502112521 10 0 0.0 3.2 0.00 0.00 0.00 84 1013.1
20260502112022 10 294 0.0 3.2 0.00 0.00 0.00 85 1013.1
20260502111755 10 285 0.0 0.0 0.00 0.00 0.00 85 1015.2
20260502111538 10 0 0.0 3.2 0.00 0.00 0.00 85 1013.2
20260502111021 10 0 0.0 3.2 0.00 0.00 0.00 86 1013.0
20260502110743 10 85 0.0 0.0 0.00 0.00 0.00 86 1015.0
20260502110521 10 0 0.0 3.2 0.00 0.00 0.00 87 1013.0
20260502110042 10 0 0.0 1.6 0.00 0.00 0.00 87 1013.0
20260502105729 10 166 0.0 0.0 0.00 0.00 0.00 87 1015.1
20260502105524 10 0 0.0 1.6 0.00 0.00 0.00 87 1013.0
20260502105021 10 0 0.0 1.6 0.00 0.00 0.00 88 1013.0
20260502104659 10 166 0.0 0.0 0.00 0.00 0.00 87 1014.9
20260502104543 10 0 0.0 1.6 0.00 0.00 0.00 88 1012.9
20260502104017 10 166 0.0 1.6 0.00 0.00 0.00 88 1013.0
20260502103708 10 166 0.0 0.0 0.00 0.00 0.00 88 1015.0
20260502103523 10 0 0.0 0.0 0.00 0.00 0.00 88 1013.0
20260502103041 10 0 0.0 1.6 0.00 0.00 0.00 88 1013.0
20260502102644 10 166 0.0 0.0 0.00 0.00 0.00 88 1015.0
20260502102520 10 0 0.0 1.6 0.00 0.00 0.00 88 1013.1
20260502102018 10 0 0.0 1.6 0.00 0.00 0.00 88 1013.1
20260502101551 10 0 0.0 1.6 0.00 0.00 0.00 88 1013.1
20260502101018 10 0 0.0 1.6 0.00 0.00 0.00 88 1013.1
20260502100655 10 166 0.0 0.0 0.00 0.00 0.00 88 1015.1
20260502100522 10 0 0.0 1.6 0.00 0.00 0.00 88 1013.1
20260502100103 10 0 0.0 0.0 0.00 0.00 0.00 88 1013.1
20260502091020 10 166 0.0 1.6 0.00 0.00 0.00 88 1013.2
20260502090518 10 0 0.0 0.0 0.00 0.00 0.00 88 1013.1
20260502090506 10 166 0.0 0.0 0.00 0.00 0.00 88 1015.1
20260502071018 10 0 0.0 1.6 0.00 0.00 0.00 87 1011.9
20260502070521 10 0 0.0 1.6 0.00 0.00 0.00 87 1012.0
20260502070241 10 166 0.0 0.0 0.00 0.00 0.00 87 1014.1
20260502070042 10 0 0.0 1.6 0.00 0.00 0.00 87 1012.0
20260502065517 10 0 0.0 1.6 0.00 0.00 0.00 87 1012.0
20260502065228 10 166 0.0 0.0 0.00 0.00 0.00 87 1014.1
20260502065020 10 0 0.0 1.6 0.00 0.00 0.00 87 1012.1
20260502064543 10 0 0.0 1.6 0.00 0.00 0.00 86 1012.2
20260502064220 11 166 0.0 0.0 0.00 0.00 0.00 86 1014.2
20260502064025 10 166 0.0 1.6 0.00 0.00 0.00 86 1012.2
20260502063523 10 0 0.0 0.0 0.00 0.00 0.00 86 1012.3
20260502063157 11 166 0.0 0.0 0.00 0.00 0.00 86 1014.4
20260502063042 10 0 0.0 0.0 0.00 0.00 0.00 86 1012.4
20260502062520 10 0 0.0 1.6 0.00 0.00 0.00 86 1012.4
20260502062020 10 0 0.0 3.2 0.00 0.00 0.00 86 1012.5
20260502061541 10 0 0.0 3.2 0.00 0.00 0.00 86 1012.6
20260502061020 11 166 0.0 3.2 0.00 0.00 0.00 85 1012.6
20260502061013 11 166 0.0 1.6 0.00 0.00 0.00 85 1014.6
20260502060520 11 0 0.0 3.2 0.00 0.00 0.00 85 1012.7
20260502060041 11 0 0.0 3.2 0.00 0.00 0.00 85 1012.7
20260502060031 11 277 0.0 0.0 0.00 0.00 0.00 85 1014.7
20260502055520 11 0 0.0 3.2 0.00 0.00 0.00 85 1012.8
20260502055018 11 0 0.0 3.2 0.00 0.00 0.00 85 1012.8
20260502054539 11 226 0.0 3.2 0.00 0.00 0.00 85 1012.7
20260502054021 11 245 0.0 4.8 0.00 0.00 0.00 85 1012.8
20260502053854 11 345 0.0 0.0 0.00 0.00 0.00 85 1014.8
20260502053519 11 345 0.0 4.8 0.00 0.00 0.00 85 1012.8
20260502053037 11 351 1.6 6.4 0.00 0.00 0.00 85 1012.8
20260502052827 11 347 1.6 4.8 0.00 0.00 0.00 85 1014.9
20260502052518 11 0 0.0 6.4 0.00 0.00 0.00 85 1012.7
20260502052021 11 351 3.2 6.4 0.00 0.00 0.00 84 1012.8
20260502051534 11 141 0.0 4.8 0.00 0.00 0.00 84 1012.3
20260502051017 11 141 1.6 4.8 0.00 0.00 0.00 84 1012.2
20260502050525 11 0 0.0 4.8 0.00 0.00 0.00 85 1012.2
20260502050045 11 154 1.6 4.8 0.00 0.00 0.00 84 1012.3
20260502045523 11 176 1.6 3.2 0.00 0.00 0.00 84 1012.3
20260502045023 11 0 0.0 4.8 0.00 0.00 0.00 84 1012.3
20260502044542 11 176 0.0 4.8 0.00 0.00 0.00 84 1012.2
20260502044303 11 176 0.0 3.2 0.00 0.00 0.00 84 1014.4
20260502044022 11 176 0.0 4.8 0.00 0.00 0.00 84 1012.4
20260502043522 11 0 0.0 4.8 0.00 0.00 0.00 84 1012.3
20260502043307 11 203 0.0 0.0 0.00 0.00 0.00 83 1014.4
20260502043042 11 203 1.6 3.2 0.00 0.00 0.00 83 1012.4
20260502042522 11 0 0.0 4.8 0.00 0.00 0.00 83 1012.3
20260502042233 11 160 0.0 0.0 0.00 0.00 0.00 83 1014.4
20260502042022 11 0 0.0 4.8 0.00 0.00 0.00 83 1012.4
20260502041539 11 147 1.6 4.8 0.00 0.00 0.00 83 1012.4
20260502041235 11 150 1.6 3.2 0.00 0.00 0.00 83 1014.3
20260502041022 11 143 1.6 4.8 0.00 0.00 0.00 83 1012.4
20260502040525 11 147 1.6 4.8 0.00 0.00 0.00 83 1012.5
20260502040216 11 147 0.0 3.2 0.00 0.00 0.00 82 1014.4
20260502040040 11 188 1.6 3.2 0.00 0.00 0.00 82 1012.4
20260502035522 11 188 0.0 3.2 0.00 0.00 0.00 82 1012.5
20260502035233 12 188 0.0 1.6 0.00 0.00 0.00 82 1014.7
20260502035025 11 188 1.6 3.2 0.00 0.00 0.00 82 1012.6
20260502034544 11 0 0.0 3.2 0.00 0.00 0.00 82 1012.7
20260502034211 12 188 1.6 4.8 0.00 0.00 0.00 82 1014.6
20260502034022 11 0 0.0 6.4 0.00 0.00 0.00 82 1012.6
20260502033522 12 0 1.6 6.4 0.00 0.00 0.00 81 1012.7